Regional Weather Roundup
Issued by NWS Jackson, KY

Home | Current Version | Previous Version | Graphics & Text | Print | Product List | Glossary On
Versions: 1 2 3 4 5 6 7 8 9 10 11 12 13 14 15 16 17 18 19 20 21 22 23 24 25 26 27 28 29 30 31 32 33 34 35 36 37 38 39 40 41 42 43 44 45 46 47 48 49 50
794
ASUS43 KJKL 231910
RWRJKL

EAST KENTUCKY HOURLY WEATHER ROUNDUP
NATIONAL WEATHER SERVICE JACKSON KY
200 PM EST MON JAN 23 2017

NOTE: "FAIR" INDICATES FEW OR NO CLOUDS BELOW 12,000 FEET WITH
NO SIGNIFICANT WEATHER AND/OR OBSTRUCTIONS TO VISIBILITY.

* THESE REPORTS ARE NOT UNDER NWS QUALITY CONTROL AND MAY NOT
  REPORT WEATHER SUCH AS PRECIPITATION AND FOG.

KYZ079-080-083-085-087-088-110-112-115-119-120-232000
...EASTERN KENTUCKY...

CITY           SKY/WX    TMP DP  RH WIND       PRES   REMARKS
JACKSON        LGT RAIN  50  47  89 VRB7      29.41S FOG
LONDON         LGT RAIN  49  45  86 NW14      29.45S
SOMERSET*      DRIZZLE   48  48 100 N15G24    29.51R
MONTICELLO*    CLOUDY    50  46  86 N18G29    29.52S
WILLIAMSBURG*  CLOUDY    48  48 100 NW8G17    29.46S
MIDDLESBORO*   HVY RAIN  52  50  92 NW17G23   29.41S
HARLAN APT*    CLOUDY    50  46  87 W3        29.40R
PIKE CO APT*   DRIZZLE   48  48 100 N6        29.38R
BIG SANDY APT* DRIZZLE   49  49 100 N8        29.40R
MOREHEAD APT*  LGT RAIN  48  46  93 N13       29.47S
ASHLAND*       CLOUDY    48  46  93 NE8       29.42S
$$

KYZ035-036-041-042-044-050-067-078-099-232000
...CENTRAL KENTUCKY...

CITY           SKY/WX    TMP DP  RH WIND       PRES   REMARKS
MT STERLING*   CLOUDY    46  45  93 N12G18    29.48F
FLEMING/MASON* CLOUDY    48  47  97 N7        29.48S FOG
DANVILLE*      CLOUDY    46  45  93 N17G24    29.53S FOG
LEXINGTON      CLOUDY    48  45  89 NW16G25   29.50F
FRANKFORT      CLOUDY    49  45  86 NW14G21   29.52F FOG
LOUISVILLE     CLOUDY    49  43  80 NW13G21   29.60R
LEBANON*       CLOUDY    48  46  93 NW16      29.55S FOG
GLASGOW*       CLOUDY    46  45  97 NW12G21   29.61S FOG
BOWLING GREEN  CLOUDY    46  40  79 NW14G23   29.64F
$$

KYZ091>093-OHZ055-061-077-WVZ005-015-034-035-042-232000
...SOUTHERN OHIO/WEST VIRGINIA...

CITY           SKY/WX    TMP DP  RH WIND       PRES   REMARKS
COVINGTON      LGT RAIN  47  46  97 N16       29.53F FOG
COLUMBUS       CLOUDY    51  45  79 NE9       29.49F
DAYTON         LGT RAIN  44  43  96 N13       29.56S FOG
WILMINGTON     CLOUDY    49  47  93 N12       29.50S
HUNTINGTON     LGT RAIN  49  45  86 NE7       29.41S
CHARLESTON     RAIN      47  43  86 NE8       29.40S
BECKLEY        LGT RAIN  44  41  89 NE7       29.36R FOG
BLUEFIELD      LGT RAIN  43  41  93 NE7       29.33S
LOGAN CO APT*  LGT RAIN  48  46  93 NE5       29.37S
$$

VAZ002-007-008-TNZ017-027-036-066-071-232000
...SOUTHWEST VIRGINIA/EAST TENNESSEE...

CITY           SKY/WX    TMP DP  RH WIND       PRES   REMARKS
WISE*          DRIZZLE   46  46 100 N7        29.37R
JONESVILLE*    LGT RAIN  54  50  87 NW7       29.40R
ABINGDON*      LGT RAIN  49  46  88 NW3       29.34R
BRISTOL        CLOUDY    51  45  79 N6        29.35R
MORRISTOWN*    MOCLDY    55  52  88 NW8G16    29.36F
SEVIERVILLE*   CLOUDY    52  52 100 W12       29.39S
KNOXVILLE      LGT RAIN  53  49  86 NW10      29.41S
LAFOLLETTE*    MOCLDY    52  48  87 VRB7G18   29.46S FOG
OAK RIDGE      CLOUDY    57  46  66 NW9       29.44R
CROSSVILLE     CLOUDY    46  44  93 NW18G29   29.52R FOG
NASHVILLE      CLOUDY    49  40  71 NW14      29.65S
$$

...KEY TO REMARKS...
VSB - VISIBILITY IN MILES
WCI - WIND CHILL INDEX
HX  - HEAT INDEX

$$




USA.gov is the U.S. government's official web portal to all federal, state and local government web resources and services.